Location: Espelette
(43.3402°N, 1.4474°W)
Time: 16:26:25
(UTC+00:00)

SL-8 Rocket - Pass Details

Date: 19 May 2025
Orbit: 955 x 990 km, 82.9° (Epoch: 13 June)

Event Time Altitude Azimuth Distance (km) Brightness Sun altitude
Rises 21:17:32 0° 354° (N) 3,650 8.0 -16.3°
Reaches altitude 10° 21:20:04 10° 357° (N) 2,698 7.1 -16.6°
Maximum altitude 21:26:13 69° 80° (E) 1,021 4.0 -17.3°
Enters shadow 21:29:41 27° 158° (SSE) 1,745 4.8 -17.6°
